Regional Weather Roundup
Issued by NWS

Home | Current Version | Previous Version | Text Only | Print | Product List | Glossary On
Versions: 1 2 3 4 5 6 7 8 9 10 11 12 13 14 15 16 17 18 19 20 21 22 23 24 25 26 27 28 29 30 31 32 33 34 35 36 37 38 39 40 41 42 43 44 45 46 47 48 49 50
154
ASUS43 KBIS 221110
RWRND

NORTH DAKOTA REGIONAL WEATHER ROUNDUP
NATIONAL WEATHER SERVICE BISMARCK ND
500 AM CST SUN JAN 22 2017

NOTE: "FAIR" INDICATES FEW OR NO CLOUDS BELOW 12,000 FEET WITH NO
SIGNIFICANT WEATHER AND/OR OBSTRUCTIONS TO VISIBILITY.


NDZ001>003-009>011-017-221200-
NORTHWEST NORTH DAKOTA

CITY           SKY/WX    TMP DP  RH WIND       PRES   REMARKS
WILLISTON      CLOUDY    30  28  92 W10       29.71R
MINOT          CLOUDY    32  27  81 W17       29.65R
MINOT AFB      CLOUDY    30  26  84 NW18      29.64R WCI  17
$$

NDZ018>021-031>035-040>046-221200-
SOUTHWEST NORTH DAKOTA

CITY           SKY/WX    TMP DP  RH WIND       PRES   REMARKS
BISMARCK       CLOUDY    28  26  92 W6        29.70R
DICKINSON      CLOUDY    14  11  87 W8        29.68R WCI   3
GARRISON         N/A     29  27  92 NW15      29.66R WCI  18
HETTINGER ARPT CLEAR     19  15  84 NW13      29.71R WCI   6
$$

NDZ004>008-012>016-024-026-027-054-221200-
NORTHEAST NORTH DAKOTA

CITY           SKY/WX    TMP DP  RH WIND       PRES   REMARKS
GRAND FORKS    CLOUDY    34  32  92 W6        29.65R FOG
GRND FRKS AFB  CLOUDY    34  33  99 NW5       29.65R
DEVILS LAKE    CLOUDY    30  28  92 W12       29.65R
$$

NDZ022-023-025-028>030-036>039-047>053-221200-
SOUTHEAST NORTH DAKOTA

CITY           SKY/WX    TMP DP  RH WIND       PRES   REMARKS
FARGO          FOG       35  33  92 W3        29.65S VSB 3/4
JAMESTOWN      CLOUDY    29  27  92 NW12      29.65R WCI  19
$$





USA.gov is the U.S. government's official web portal to all federal, state and local government web resources and services.